Location: Fort Wayne
(41.1310°N, 85.1290°W)
Time: 16:01:29
(UTC-04:00)

Gbstr 26 Del rocket - Visible Passes

Search period start: 06 July 2015 00:00
Search period end: 16 July 2015 00:00
Orbit: 493 x 1271 km, 51.8° (Epoch: 06 July)

Date Brightness Start Highest point End Pass type
(mag) Time Alt. Az. Time Alt. Az. Time Alt. Az.
06 Jul 3.2 02:08:22 74° N 02:08:22 74° N 02:12:25 10° NE visible
06 Jul 5.0 03:51:59 10° WNW 03:55:35 23° NNW 03:58:47 10° NE visible
06 Jul 5.4 05:40:46 10° NW 05:43:37 18° N 05:46:20 10° NE visible
07 Jul 5.6 00:21:37 11° ENE 00:21:37 11° ENE 00:21:46 10° ENE visible
07 Jul 3.5 02:04:10 57° WNW 02:04:38 61° NNW 02:08:51 10° NE visible
07 Jul 5.2 03:48:44 10° WNW 03:52:11 21° NNW 03:55:15 10° NE visible
07 Jul 5.3 05:37:15 10° NW 05:40:14 20° N 05:43:05 10° ENE visible
08 Jul 5.1 00:17:13 18° E 00:17:13 18° E 00:18:27 10° ENE visible
08 Jul 3.9 01:59:45 38° WNW 02:01:07 50° NNW 02:05:17 10° NE visible
08 Jul 5.3 03:45:29 10° WNW 03:48:47 20° N 03:51:46 10° NE visible
08 Jul 5.2 05:33:42 10° NW 05:36:51 22° NNE 05:39:51 10° ENE visible
09 Jul 4.3 00:12:25 31° E 00:12:25 31° E 00:15:04 10° ENE visible
09 Jul 4.3 01:54:53 22° W 01:57:37 42° NNW 02:01:42 10° NE visible
09 Jul 5.4 03:42:11 10° NW 03:45:25 19° N 03:48:20 10° NE visible
09 Jul 5.0 05:30:06 10° NW 05:33:26 25° NNE 05:36:36 10° ENE visible
09 Jul5.922:24:04E22:24:04E22:13:57Svisible
10 Jul 3.4 00:06:23 56° SSE 00:06:57 59° SE 00:11:36 10° ENE visible
10 Jul 4.6 01:49:21 10° W 01:54:08 36° NNW 01:58:07 10° NE visible
10 Jul 5.5 03:38:51 10° NW 03:42:02 19° N 03:44:56 10° NE visible
10 Jul 4.8 05:26:30 10° NW 05:30:01 29° NNE 05:33:20 10° E visible
10 Jul 5.1 22:13:02 10° SSE 22:16:27 16° SE 22:19:45 10° E visible
10 Jul 3.3 23:57:27 10° SW 00:03:21 75° SE 00:08:06 10° ENE visible
11 Jul 4.9 01:46:03 10° W 01:50:40 31° NNW 01:54:33 10° NE visible
11 Jul 5.5 03:35:27 10° NW 03:38:40 19° N 03:41:34 10° NE visible
11 Jul 4.5 05:22:54 10° NW 05:26:35 35° NNE 05:30:02 10° E visible
11 Jul 4.9 22:08:24 10° S 22:12:50 21° SE 22:16:51 10° E visible
11 Jul 3.4 23:53:49 10° SW 23:59:47 89° NW 00:04:34 10° NE visible
12 Jul 5.1 01:42:46 10° W 01:47:13 28° NNW 01:50:59 10° NE visible
12 Jul 5.5 03:32:02 10° NW 03:35:17 20° N 03:38:16 10° NE visible
12 Jul 4.0 05:19:17 10° NW 05:23:07 43° NNE 05:26:40 10° E visible
12 Jul 4.6 22:04:02 10° S 22:09:13 27° SE 22:13:42 10° ENE visible
12 Jul 3.6 23:50:15 10° WSW 23:56:14 74° NW 00:01:01 10° NE visible
13 Jul 5.3 01:39:30 10° WNW 01:43:48 26° NNW 01:47:28 10° NE visible
13 Jul 5.5 03:28:32 10° NW 03:31:55 21° N 03:34:59 10° ENE visible
13 Jul 3.5 05:15:41 10° NW 05:19:37 54° NNE 05:23:16 10° ESE visible
13 Jul 4.3 21:59:53 10° SSW 22:05:36 34° SE 22:10:25 10° ENE visible
13 Jul 4.0 23:46:46 10° WSW 23:52:42 61° NNW 23:57:26 10° NE visible
14 Jul 5.5 01:36:14 10° WNW 01:40:23 24° NNW 01:43:57 10° NE visible
14 Jul 5.3 03:25:01 10° NW 03:28:32 23° N 03:31:42 10° ENE visible
14 Jul 2.9 05:12:05 10° NW 05:16:06 72° NNE 05:19:48 10° ESE visible
14 Jul 4.1 21:55:52 10° SSW 22:01:59 42° SE 22:07:02 10° ENE visible
14 Jul 4.3 23:43:20 10° WSW 23:49:09 51° NNW 23:53:52 10° NE visible
15 Jul 5.5 01:32:56 10° WNW 01:36:59 23° N 01:40:29 10° NE visible
15 Jul 5.2 03:21:27 10° NW 03:25:08 25° NNE 03:28:26 10° ENE visible
15 Jul 2.6 05:08:31 10° NW 05:12:32 86° SW 05:16:16 10° SE visible
15 Jul 3.9 21:51:58 10° SSW 21:58:23 53° SE 22:03:36 10° ENE visible
15 Jul 4.7 23:39:57 10° W 23:45:39 44° NNW 23:50:17 10° NE visible
